World > North America > United States > Texas > Howe  

Howe, TX Hourly Weather Updates

Feedback E-mail the Weather

Quick Clicks

Howe, TX Weather Maps

°F °C°F °C
Howe Weather Map
UTC Time: 4/20/2024, 07:22
Your Time:

Howe, TX Regional Weather

Expires:202404200800;;057299
ASUS44 KFWD 200715
RWRTX 
NORTH TEXAS HOURLY WEATHER ROUNDUP
NATIONAL WEATHER SERVICE FORT WORTH TX
200 AM CDT SAT APR 20 2024

NOTE: "FAIR" INDICATES FEW OR NO CLOUDS BELOW 12,000 FEET WITH NO
SIGNIFICANT WEATHER AND/OR OBSTRUCTIONS TO VISIBILITY.


TXZ091>094-102>105-117-120-121-131>134-200800-
NORTH CENTRAL TEXAS
  
CITY           SKY/WX    TMP DP  RH WIND       PRES   REMARKS
SHRMAN/DENISON CLOUDY    58  56  92 NE9       30.15F FOG              
GAINESVILLE    CLOUDY    57  55  92 NE7       30.15S                  
BOWIE          CLOUDY    58  50  74 NE6       30.14S                  
BRIDGEPORT     CLOUDY    59  51  75 NE6       30.14S                  
DECATUR        MOCLDY    58  51  77 NE9       30.11F                  
DENTON         CLOUDY    60  55  83 NE10      30.11F                  
MCKINNEY       CLOUDY    60  57  89 N10       30.12R                  
BONHAM         CLOUDY    59  58  98 NE9       30.15R FOG              
GREENVILLE     CLOUDY    60  59  96 NE7       30.11S                  
ROCKWALL       CLOUDY    61  61 100 N7        30.11R                  
TERRELL        CLOUDY    62  59  90 NE8       30.09S                  
WAXAHACHIE     CLOUDY    63  61  92 NE6       30.12R                  
CLEBURNE       CLOUDY    63  55  77 N10G16    30.10R                  
GRANBURY       CLOUDY    63  54  73 N6        30.12R                  
$$


SKY/WX - Weather  TMP - Temperature  DP - Dew Point  RH - Humidity
WIND - Wind Direction/Speed PRES - Barometric Pressure VSB - Visibility
WCI - Wind Chill Index E13G22 Wind - East Wind 13 mph/Gusts of 22 mph

Trending Headlines

Trending Entertainment Headlines

Howe Radar Loop

Use the map search tool if you want to place a location marker on the radar map...

Howe Quick Facts

National Two Day Weather Forecast


E-mail the Howe Weather Forecast

Voice your opinion or tell us about page issues...